weather.gov     
National Weather Service

Terminal Aerodrome Forecast
NWS Homepage
This page is being discontinued on March 12, 2014.
The same data is available at this site. Please update your bookmarks.
Thank you, and we apologize for the inconvenience.
Please send an email to SR-SRH.Webmaster@noaa.gov with any concerns.


Current Version
Previous Version:    01  02  03  04  05  06  07  08  09  10  11  12  13  14  15  16  17  18  19  20  21  22  23  24  25  26  27  28  29  30  
   31  
[Printable]
472
FTUS42 KTAE 240100 AAB
TAFVLD
TAF AMD
KVLD 240136Z 2402/2424 00000KT 3SM RA BR SCT015 BKN040 OVC050
      TEMPO 2402/2403 VRB15G25KT 1SM +TSRA BKN007 OVC030CB
     FM240300 18010KT 6SM BR OVC020
     FM240800 19010KT 5SM BR OVC004
     FM241600 23010G15KT P6SM BKN020
     FM241800 26010KT P6SM BKN030 OVC060=


U.S. Dept. of Commerce
NOAA National Weather Service
1325 East West Highway
Silver Spring, MD 20910
E-mail: w-nws.webmaster@noaa.gov
Page last modified: May 16, 2007
NATIONAL WEATHER SERVICE: for Safety, for Work, for Fun - FOR LIFE